AVA9512 SKBO-SKBQ

Flight info

Callsign AVA9512
Flight time 0h 55m
Altitude 32000
Route OSUSU4R GIKPU UQ120 DIBAM UW9 ELB W12 DARNI DARNI1A
Aircraft A320/M-SDE3FGHIRWY/LB1

Departure

Time 2026-04-26 20:45
Airport El Dorado International Airport (SKBO)

Arrival

Time 2026-04-26 21:40
Airport Ernesto Cortissoz International Airport (SKBQ)
Time Latitude Longitude Altitude Speed Heading
2026-04-26 20:18 4.69808 -74.14563 8373 ft 0 kts 37°
2026-04-26 20:28 4.69802 -74.14568 8372 ft 4 kts 37°
2026-04-26 20:28 4.69783 -74.14582 8374 ft 4 kts 28°
2026-04-26 20:29 4.69761 -74.14585 8374 ft 4 kts 329°
2026-04-26 20:29 4.69741 -74.14568 8373 ft 4 kts 308°
2026-04-26 20:29 4.69738 -74.14564 8373 ft 4 kts 307°
2026-04-26 20:29 4.69755 -74.14586 8374 ft 4 kts 307°
2026-04-26 20:30 4.69771 -74.14608 8374 ft 4 kts 307°
2026-04-26 20:30 4.69787 -74.14629 8373 ft 4 kts 307°
2026-04-26 20:30 4.69791 -74.14634 8373 ft 0 kts 307°
2026-04-26 20:32 4.69792 -74.14636 8374 ft 2 kts 307°
2026-04-26 20:32 4.69829 -74.14684 8373 ft 15 kts 307°
2026-04-26 20:32 4.69903 -74.14706 8370 ft 12 kts 37°
2026-04-26 20:33 4.69979 -74.14649 8373 ft 17 kts 37°
2026-04-26 20:33 4.70090 -74.14567 8373 ft 23 kts 36°
2026-04-26 20:33 4.70220 -74.14468 8373 ft 24 kts 38°
2026-04-26 20:33 4.70350 -74.14369 8373 ft 23 kts 37°
2026-04-26 20:34 4.70392 -74.14283 8373 ft 13 kts 124°
2026-04-26 20:34 4.70332 -74.14204 8373 ft 16 kts 126°
2026-04-26 20:34 4.70263 -74.14113 8372 ft 16 kts 129°
2026-04-26 20:34 4.70196 -74.14023 8372 ft 16 kts 128°
2026-04-26 20:35 4.70126 -74.13931 8372 ft 18 kts 127°
2026-04-26 20:35 4.70050 -74.13825 8373 ft 20 kts 124°
2026-04-26 20:35 4.69962 -74.13716 8373 ft 20 kts 127°
2026-04-26 20:35 4.69873 -74.13598 8373 ft 23 kts 127°
2026-04-26 20:36 4.69769 -74.13460 8373 ft 25 kts 127°
2026-04-26 20:36 4.69664 -74.13320 8373 ft 26 kts 127°
2026-04-26 20:36 4.69545 -74.13164 8373 ft 30 kts 127°
2026-04-26 20:36 4.69421 -74.13000 8372 ft 29 kts 127°
2026-04-26 20:37 4.69301 -74.12839 8372 ft 28 kts 127°
2026-04-26 20:37 4.69203 -74.12703 8372 ft 16 kts 104°
2026-04-26 20:37 4.69222 -74.12602 8372 ft 9 kts 74°
2026-04-26 20:37 4.69224 -74.12593 8372 ft 0 kts 74°
2026-04-26 20:39 4.69235 -74.12552 8371 ft 13 kts 75°
2026-04-26 20:40 4.69285 -74.12503 8371 ft 8 kts
2026-04-26 20:40 4.69303 -74.12521 8371 ft 0 kts 308°
2026-04-26 20:44 4.69330 -74.12556 8370 ft 27 kts 307°
2026-04-26 20:44 4.69588 -74.12898 8368 ft 93 kts 307°
2026-04-26 20:44 4.70095 -74.13566 8371 ft 146 kts 307°
2026-04-26 20:44 4.70794 -74.14493 8429 ft 183 kts 305°
2026-04-26 20:45 4.71551 -74.15497 9292 ft 179 kts 304°
2026-04-26 20:45 4.72306 -74.16490 9720 ft 185 kts 307°
2026-04-26 20:45 4.73140 -74.17568 9844 ft 206 kts 312°
2026-04-26 20:45 4.74415 -74.18303 9963 ft 225 kts 352°
2026-04-26 20:46 4.76002 -74.18050 10114 ft 243 kts 20°
2026-04-26 20:46 4.77645 -74.17369 10288 ft 267 kts 24°
2026-04-26 20:46 4.79361 -74.16576 10826 ft 275 kts 24°
2026-04-26 20:46 4.81104 -74.15754 11475 ft 278 kts 25°
2026-04-26 20:47 4.82866 -74.14925 12145 ft 281 kts 25°
2026-04-26 20:47 4.83467 -74.14644 12369 ft 282 kts 24°
2026-04-26 20:47 4.86462 -74.13264 13474 ft 287 kts 24°
2026-04-26 20:47 4.88171 -74.12207 14028 ft 296 kts 41°
2026-04-26 20:48 4.89724 -74.10742 14155 ft 318 kts 44°
2026-04-26 20:48 4.91349 -74.09127 14262 ft 340 kts 45°
2026-04-26 20:48 4.93065 -74.07394 14124 ft 360 kts 45°
2026-04-26 20:48 4.94869 -74.05569 14247 ft 378 kts 45°
2026-04-26 20:49 4.96740 -74.03687 14388 ft 393 kts 45°
2026-04-26 20:49 4.98699 -74.01732 14751 ft 400 kts 44°
2026-04-26 20:49 5.00697 -73.99772 15228 ft 404 kts 41°
2026-04-26 20:49 5.03040 -73.98224 15669 ft 406 kts 25°
2026-04-26 20:50 5.05682 -73.97183 16159 ft 409 kts 17°
2026-04-26 20:50 5.08442 -73.96466 16625 ft 411 kts 12°
2026-04-26 20:50 5.11256 -73.95920 17084 ft 414 kts
2026-04-26 20:50 5.14104 -73.95410 17540 ft 417 kts 10°
2026-04-26 20:51 5.16962 -73.94859 17983 ft 420 kts 11°
2026-04-26 20:51 5.19837 -73.94240 18399 ft 424 kts 12°
2026-04-26 20:51 5.22714 -73.93559 18765 ft 426 kts 13°
2026-04-26 20:51 5.25652 -73.93171 19131 ft 428 kts 358°
2026-04-26 20:52 5.27611 -73.93397 19331 ft 429 kts 348°
2026-04-26 20:52 5.30536 -73.94062 19691 ft 432 kts 346°
2026-04-26 20:52 5.33472 -73.94748 20031 ft 435 kts 349°
2026-04-26 20:52 5.36491 -73.94922 20370 ft 437 kts
2026-04-26 20:53 5.39474 -73.94299 20698 ft 440 kts 16°
2026-04-26 20:53 5.42424 -73.93447 21035 ft 443 kts 17°
2026-04-26 20:53 5.45392 -73.92569 21336 ft 447 kts 17°
2026-04-26 20:53 5.48398 -73.91669 21457 ft 455 kts 17°
2026-04-26 20:54 5.51455 -73.90754 21587 ft 462 kts 17°
2026-04-26 20:54 5.54556 -73.89830 21705 ft 468 kts 17°
2026-04-26 20:54 5.57701 -73.88901 21827 ft 474 kts 17°
2026-04-26 20:54 5.60875 -73.87966 22002 ft 477 kts 17°
2026-04-26 20:55 5.64073 -73.87024 22222 ft 479 kts 17°
2026-04-26 20:55 5.67282 -73.86080 22464 ft 481 kts 17°
2026-04-26 20:55 5.70502 -73.85139 22646 ft 483 kts 15°
2026-04-26 20:55 5.73824 -73.84639 22862 ft 486 kts
2026-04-26 20:56 5.77193 -73.84974 23034 ft 489 kts 349°
2026-04-26 20:56 5.80530 -73.85665 23246 ft 490 kts 348°
2026-04-26 20:56 5.83874 -73.86370 23428 ft 492 kts 348°
2026-04-26 20:56 5.87232 -73.87087 23614 ft 493 kts 348°
2026-04-26 20:57 5.90597 -73.87803 23800 ft 495 kts 348°
2026-04-26 20:57 5.93968 -73.88519 23969 ft 496 kts 348°
2026-04-26 20:57 5.97354 -73.89234 24158 ft 497 kts 348°
2026-04-26 20:57 6.00740 -73.89948 24358 ft 497 kts 348°
2026-04-26 20:58 6.04131 -73.90664 24629 ft 496 kts 348°
2026-04-26 20:58 6.07505 -73.91375 24905 ft 495 kts 348°
2026-04-26 20:58 6.10879 -73.92084 25155 ft 495 kts 348°
2026-04-26 20:58 6.14250 -73.92792 25424 ft 495 kts 348°
2026-04-26 20:59 6.17617 -73.93499 25671 ft 494 kts 348°
2026-04-26 20:59 6.20989 -73.94209 25941 ft 494 kts 348°
2026-04-26 20:59 6.24352 -73.94917 26223 ft 493 kts 348°
2026-04-26 20:59 6.27711 -73.95626 26506 ft 493 kts 348°
2026-04-26 21:00 6.31073 -73.96338 26767 ft 493 kts 348°
2026-04-26 21:00 6.34427 -73.97048 27053 ft 493 kts 348°
2026-04-26 21:00 6.37780 -73.97757 27345 ft 492 kts 348°
2026-04-26 21:00 6.41134 -73.98464 27651 ft 492 kts 348°
2026-04-26 21:01 6.44487 -73.99168 27941 ft 492 kts 348°
2026-04-26 21:01 6.47833 -73.99872 28257 ft 491 kts 348°
2026-04-26 21:01 6.51177 -74.00578 28575 ft 491 kts 348°
2026-04-26 21:01 6.54514 -74.01284 28913 ft 490 kts 348°
2026-04-26 21:02 6.57850 -74.01989 29251 ft 489 kts 348°
2026-04-26 21:02 6.61135 -74.02683 29574 ft 489 kts 348°
2026-04-26 21:02 6.64461 -74.03386 29911 ft 488 kts 348°
2026-04-26 21:02 6.67787 -74.04089 30199 ft 488 kts 348°
2026-04-26 21:03 6.71112 -74.04791 30474 ft 488 kts 348°
2026-04-26 21:03 6.74438 -74.05491 30749 ft 488 kts 348°
2026-04-26 21:03 6.77760 -74.06191 31010 ft 487 kts 348°
2026-04-26 21:03 6.81081 -74.06888 31282 ft 487 kts 348°
2026-04-26 21:04 6.84401 -74.07586 31567 ft 487 kts 348°
2026-04-26 21:04 6.87721 -74.08286 31810 ft 488 kts 348°
2026-04-26 21:04 6.91047 -74.08992 31878 ft 491 kts 348°
2026-04-26 21:05 6.97772 -74.10424 31884 ft 495 kts 348°
2026-04-26 21:05 7.04529 -74.11852 31891 ft 496 kts 348°
2026-04-26 21:06 7.11289 -74.13277 31888 ft 496 kts 348°
2026-04-26 21:06 7.18046 -74.14706 31888 ft 496 kts 348°
2026-04-26 21:07 7.24808 -74.16138 31884 ft 496 kts 348°
2026-04-26 21:07 7.31562 -74.17567 31890 ft 496 kts 348°
2026-04-26 21:08 7.38318 -74.18999 31891 ft 496 kts 348°
2026-04-26 21:08 7.45073 -74.20428 31890 ft 496 kts 348°
2026-04-26 21:09 7.51835 -74.21864 31907 ft 496 kts 348°
2026-04-26 21:09 7.58585 -74.23299 31908 ft 496 kts 348°
2026-04-26 21:10 7.65290 -74.24726 31913 ft 496 kts 348°
2026-04-26 21:10 7.72043 -74.26155 31914 ft 496 kts 348°
2026-04-26 21:11 7.78790 -74.27590 31910 ft 495 kts 348°
2026-04-26 21:11 7.85533 -74.29022 31907 ft 495 kts 348°
2026-04-26 21:12 7.92277 -74.30448 31896 ft 495 kts 348°
2026-04-26 21:12 7.99019 -74.31879 31896 ft 495 kts 348°
2026-04-26 21:13 8.05766 -74.33314 31891 ft 495 kts 348°
2026-04-26 21:13 8.12507 -74.34745 31889 ft 495 kts 348°
2026-04-26 21:14 8.19250 -74.36178 31863 ft 495 kts 348°
2026-04-26 21:14 8.25999 -74.37616 31860 ft 496 kts 348°
2026-04-26 21:15 8.32753 -74.39055 31856 ft 496 kts 348°
2026-04-26 21:15 8.39518 -74.40498 31845 ft 497 kts 348°
2026-04-26 21:16 8.46283 -74.41943 31850 ft 497 kts 348°
2026-04-26 21:16 8.53057 -74.43377 31836 ft 498 kts 348°
2026-04-26 21:17 8.59834 -74.44817 31838 ft 498 kts 348°
2026-04-26 21:17 8.66621 -74.46263 31832 ft 498 kts 348°
2026-04-26 21:18 8.73359 -74.47706 31831 ft 498 kts 348°
2026-04-26 21:18 8.80139 -74.49157 31832 ft 498 kts 348°
2026-04-26 21:19 8.86929 -74.50602 31834 ft 499 kts 348°
2026-04-26 21:19 8.93721 -74.52052 31835 ft 499 kts 348°
2026-04-26 21:20 9.00522 -74.53505 31838 ft 499 kts 348°
2026-04-26 21:20 9.07324 -74.54960 31840 ft 499 kts 348°
2026-04-26 21:21 9.14125 -74.56413 31844 ft 500 kts 348°
2026-04-26 21:21 9.20930 -74.57868 31838 ft 500 kts 348°
2026-04-26 21:22 9.27733 -74.59326 31838 ft 500 kts 348°
2026-04-26 21:22 9.34538 -74.60784 31820 ft 500 kts 348°
2026-04-26 21:23 9.41315 -74.62239 31292 ft 496 kts 348°
2026-04-26 21:23 9.44704 -74.62961 30254 ft 502 kts 348°
2026-04-26 21:23 9.48151 -74.63695 28892 ft 511 kts 348°
2026-04-26 21:23 9.51633 -74.64438 27946 ft 510 kts 348°
2026-04-26 21:24 9.55100 -74.65180 26878 ft 510 kts 348°
2026-04-26 21:24 9.58569 -74.65924 25973 ft 507 kts 348°
2026-04-26 21:24 9.62008 -74.66663 25093 ft 503 kts 347°
2026-04-26 21:24 9.65420 -74.67396 24380 ft 497 kts 347°
2026-04-26 21:25 9.68745 -74.68110 24141 ft 481 kts 347°
2026-04-26 21:25 9.71996 -74.68809 23923 ft 475 kts 347°
2026-04-26 21:25 9.75213 -74.69502 23483 ft 470 kts 347°
2026-04-26 21:25 9.78410 -74.70187 22575 ft 469 kts 347°
2026-04-26 21:26 9.81584 -74.70866 21842 ft 464 kts 347°
2026-04-26 21:26 9.84730 -74.71539 21102 ft 460 kts 347°
2026-04-26 21:26 9.87850 -74.72209 20387 ft 457 kts 347°
2026-04-26 21:26 9.90949 -74.72875 19692 ft 453 kts 347°
2026-04-26 21:27 9.94023 -74.73535 19017 ft 450 kts 347°
2026-04-26 21:27 9.97073 -74.74190 18361 ft 447 kts 347°
2026-04-26 21:27 10.00103 -74.74842 17684 ft 443 kts 347°
2026-04-26 21:27 10.03098 -74.75486 17085 ft 436 kts 347°
2026-04-26 21:28 10.06046 -74.76120 16513 ft 430 kts 347°
2026-04-26 21:28 10.08952 -74.76744 15962 ft 424 kts 347°
2026-04-26 21:28 10.11824 -74.77360 15407 ft 419 kts 347°
2026-04-26 21:28 10.14662 -74.77971 14845 ft 415 kts 348°
2026-04-26 21:29 10.17474 -74.78577 14284 ft 411 kts 348°
2026-04-26 21:29 10.20264 -74.79178 13695 ft 409 kts 348°
2026-04-26 21:29 10.23037 -74.79775 13034 ft 406 kts 348°
2026-04-26 21:29 10.25792 -74.80366 12417 ft 402 kts 348°
2026-04-26 21:30 10.28522 -74.80955 11715 ft 401 kts 348°
2026-04-26 21:30 10.31228 -74.81540 11233 ft 394 kts 348°
2026-04-26 21:30 10.33899 -74.82114 10592 ft 391 kts 348°
2026-04-26 21:30 10.35645 -74.82488 10419 ft 382 kts 348°
2026-04-26 21:31 10.39022 -74.83212 10262 ft 359 kts 348°
2026-04-26 21:31 10.41417 -74.83729 10141 ft 344 kts 348°
2026-04-26 21:31 10.43731 -74.84229 9849 ft 337 kts 348°
2026-04-26 21:31 10.45980 -74.84714 9420 ft 336 kts 348°
2026-04-26 21:32 10.48275 -74.85209 8919 ft 335 kts 348°
2026-04-26 21:32 10.50529 -74.85697 8312 ft 327 kts 348°
2026-04-26 21:32 10.52744 -74.86176 7509 ft 324 kts 348°
2026-04-26 21:32 10.54930 -74.86650 6739 ft 319 kts 348°
2026-04-26 21:33 10.57092 -74.87117 5959 ft 315 kts 348°
2026-04-26 21:33 10.59225 -74.87578 5234 ft 309 kts 348°
2026-04-26 21:33 10.61304 -74.88026 4520 ft 303 kts 348°
2026-04-26 21:33 10.63295 -74.88453 4313 ft 279 kts 348°
2026-04-26 21:34 10.65111 -74.88842 4189 ft 255 kts 348°
2026-04-26 21:34 10.66776 -74.89197 4067 ft 235 kts 348°
2026-04-26 21:34 10.68317 -74.89529 3942 ft 218 kts 348°
2026-04-26 21:34 10.69754 -74.89839 3836 ft 205 kts 347°
2026-04-26 21:35 10.71109 -74.90132 3677 ft 194 kts 347°
2026-04-26 21:35 10.71972 -74.90319 3532 ft 190 kts 348°
2026-04-26 21:35 10.73278 -74.90414 3249 ft 188 kts
2026-04-26 21:35 10.74544 -74.90119 2955 ft 187 kts 20°
2026-04-26 21:36 10.75644 -74.89433 2722 ft 185 kts 35°
2026-04-26 21:36 10.76648 -74.88621 2436 ft 184 kts 37°
2026-04-26 21:36 10.77633 -74.87789 2137 ft 184 kts 37°
2026-04-26 21:36 10.78608 -74.86957 2014 ft 182 kts 37°
2026-04-26 21:37 10.79583 -74.86123 2001 ft 184 kts 38°
2026-04-26 21:37 10.80559 -74.85287 1883 ft 182 kts 37°
2026-04-26 21:37 10.81479 -74.84498 1686 ft 164 kts 37°
2026-04-26 21:37 10.82298 -74.83795 1493 ft 148 kts 38°
2026-04-26 21:38 10.83065 -74.83139 1312 ft 142 kts 37°
2026-04-26 21:38 10.83812 -74.82500 1127 ft 139 kts 38°
2026-04-26 21:38 10.84555 -74.81863 958 ft 139 kts 36°
2026-04-26 21:38 10.85289 -74.81233 818 ft 138 kts 37°
2026-04-26 21:39 10.86017 -74.80605 635 ft 135 kts 37°
2026-04-26 21:39 10.86750 -74.79981 444 ft 136 kts 38°
2026-04-26 21:39 10.87474 -74.79360 267 ft 137 kts 37°
2026-04-26 21:39 10.88193 -74.78749 119 ft 132 kts 37°
2026-04-26 21:40 10.88800 -74.78231 100 ft 90 kts 41°
2026-04-26 21:40 10.89155 -74.77925 94 ft 52 kts 40°
2026-04-26 21:40 10.89351 -74.77749 89 ft 22 kts 47°
2026-04-26 21:40 10.89379 -74.77630 86 ft 8 kts 86°
2026-04-26 21:41 10.89373 -74.77581 84 ft 8 kts 119°
2026-04-26 21:41 10.89296 -74.77539 86 ft 17 kts 159°
2026-04-26 21:41 10.89169 -74.77495 91 ft 19 kts 166°
2026-04-26 21:41 10.89080 -74.77534 96 ft 12 kts 223°
2026-04-26 21:42 10.89022 -74.77586 97 ft 14 kts 221°
2026-04-26 21:42 10.88922 -74.77672 96 ft 24 kts 220°
2026-04-26 21:42 10.88798 -74.77771 96 ft 22 kts 219°
2026-04-26 21:42 10.88716 -74.77798 96 ft 10 kts 145°
2026-04-26 21:43 10.88662 -74.77795 97 ft 7 kts 148°
2026-04-26 21:43 10.88635 -74.77765 96 ft 2 kts 129°
2026-04-26 21:43 10.88634 -74.77763 96 ft 0 kts 129°